Wetbulb
63.49 65.18 66.48 66.80 66.67 66.94 66.83 67.20 67.02 67.19 67.25 67.10 66.83 66.59 66.34 65.93 65.19 64.20 63.22 62.42 61.76 61.51 61.83 62.30 62.48 62.73 62.70 62.78 62.37 62.72 59.79 58.85
61.42 62.62 63.51 63.59 64.59 65.87 65.92 66.18 65.95 65.66 66.04 66.06 65.64 65.48 65.49 65.41 64.98 64.48 63.62 62.77 61.83 61.60 62.11 62.38 62.21 61.58 61.37 61.38 61.72 61.87 56.69 59.32
61.78 62.24 62.45 62.30 62.68 65.23 65.80 66.15 65.79 65.25 65.28 65.35 64.32 63.44 63.75 63.25 63.57 63.72 63.62 63.38 63.10 62.96 62.96 62.46 61.80 61.43 61.34 61.98 61.67 58.06 57.17 60.10
61.16 60.86 62.82 62.07 64.25 63.34 63.29 65.05 64.61 64.13 64.01 63.51 62.80 62.45 62.53 63.01 63.05 63.37 63.54 63.38 63.26 63.07 63.46 62.91 62.09 58.86 55.96 59.32 56.50 56.29 54.28 56.56
62.80 61.58 60.84 60.72 61.03 61.45 62.63 62.59 62.95 63.29 62.97 61.58 60.63 61.97 61.20 59.67 60.46 60.80 59.74 61.93 59.77 61.24 60.02 59.69 58.17 56.71 54.92 52.74 53.13 52.66 52.43 52.83
62.64 61.64 61.24 60.48 61.07 60.72 60.33 59.35 60.44 60.84 60.86 60.64 59.23 59.09 57.47 57.70 56.25 55.85 55.92 55.68 56.34 55.95 55.20 55.50 56.03 56.11 54.48 53.22 52.66 52.18 52.33 51.84
62.51 61.45 60.70 60.56 60.65 60.00 59.58 59.97 58.93 59.77 59.26 59.15 58.42 58.62 56.50 56.57 56.63 56.06 55.31 55.46 54.61 54.11 53.96 54.66 55.28 55.43 55.09 54.00 52.77 52.00 52.38 52.30
62.16 61.21 61.57 60.46 59.94 59.81 58.76 57.54 58.71 58.64 56.98 58.11 58.58 57.22 56.10 56.37 55.60 56.14 55.14 55.32 55.59 54.82 54.21 54.26 54.66 55.02 54.79 54.37 53.61 51.93 51.76 51.89
62.56 63.01 62.71 60.29 59.34 59.02 58.57 55.32 57.14 56.47 56.52 57.00 57.43 57.45 55.88 55.83 55.22 55.47 55.61 56.62 55.42 55.16 54.87 54.38 53.74 54.40 53.59 53.86 53.59 53.00 51.96 51.92
63.69 64.61 62.72 60.64 59.32 57.92 57.32 56.91 55.89 56.01 56.51 56.44 56.12 56.43 55.22 53.87 53.61 53.59 54.86 55.04 54.36 53.93 53.77 53.21 52.73 52.39 51.96 52.38 52.55 52.69 51.79 51.73
59.53 60.78 61.24 60.30 59.19 56.98 56.37 55.67 55.20 54.67 54.49 54.23 54.71 54.66 54.12 52.15 51.28 51.14 52.55 52.01 51.34 51.54 51.30 50.64 49.72 50.10 51.43 51.58 51.10 50.91 51.53 53.95
61.21 60.28 59.41 57.48 56.48 55.30 54.17 53.86 54.28 54.06 52.98 53.21 53.71 52.74 52.65 51.07 50.39 50.45 50.05 49.80 49.11 48.92 47.81 48.63 48.15 48.46 51.34 51.32 50.01 50.97 51.82 51.88
56.06 55.74 53.39 53.86 52.84 51.85 51.45 50.99 52.31 52.46 52.56 53.37 52.30 51.72 52.27 50.44 49.77 49.36 48.98 48.42 47.58 47.62 47.40 47.55 47.17 47.76 46.08 46.64 46.74 48.16 48.16 49.28
53.22 52.51 52.83 52.37 51.83 51.68 52.44 52.06 51.77 52.14 52.16 52.32 52.18 51.38 50.55 51.01 47.96 47.87 47.56 47.62 46.74 45.92 45.58 45.41 45.36 45.94 44.02 43.47 41.19 43.53 44.72 47.08
52.05 52.00 52.29 52.28 52.00 51.54 50.80 50.26 50.27 50.53 50.94 51.30 51.36 50.03 48.96 47.75 47.20 46.68 46.38 46.90 45.47 44.74 45.36 44.62 43.20 44.14 44.27 42.74 39.38 37.66 39.88 43.87
51.52 52.13 52.11 52.92 51.55 50.19 49.10 48.39 48.44 49.69 48.59 48.42 48.03 47.67 47.16 47.65 46.83 46.07 45.93 45.72 44.69 44.87 47.36 44.26 43.69 41.65 42.91 44.99 41.69 41.09 37.52 35.55
50.60 51.37 51.76 52.00 50.91 50.21 49.50 48.06 48.07 48.77 47.88 45.67 45.45 45.66 46.02 46.48 46.52 45.38 45.07 45.43 44.73 43.92 43.05 42.36 42.53 41.78 41.51 42.34 41.62 39.07 37.79 35.02
50.72 50.99 51.29 51.74 52.20 50.89 48.61 47.54 47.23 45.64 44.49 43.43 43.41 43.78 44.30 44.21 45.25 44.07 44.55 43.92 43.10 43.32 43.40 42.51 43.30 42.83 42.49 41.74 40.72 39.58 39.10 37.66
50.34 50.69 51.02 51.40 50.37 49.60 48.09 47.16 45.38 43.97 42.44 41.73 41.71 42.03 41.84 42.27 42.74 42.73 42.23 42.15 41.95 41.49 41.43 42.48 42.12 41.00 40.86 39.06 38.69 37.94 39.07 38.22
49.99 50.67 50.44 49.73 48.90 48.25 47.12 46.08 45.72 43.72 42.75 42.25 41.59 41.36 41.25 41.33 41.48 41.74 41.90 41.51 40.98 40.51 41.42 39.67 40.33 39.45 38.80 38.19 38.61 38.61 39.18 39.52
MSLP
1018.91 1019.07 1019.28 1019.51 1019.86 1020.09 1020.12 1020.40 1020.54 1020.63 1020.81 1021.06 1021.43 1021.61 1021.57 1021.70 1021.52 1021.35 1021.34 1021.09 1021.00 1020.87 1020.59 1020.59 1020.45 1020.32 1020.28 1020.13 1019.98 1019.99 1019.81 1019.77
1018.66 1019.02 1019.42 1019.59 1019.73 1019.81 1019.81 1020.11 1020.37 1020.61 1020.93 1021.17 1021.27 1021.42 1021.25 1021.48 1021.42 1021.33 1021.23 1020.98 1021.00 1020.77 1020.52 1020.58 1020.56 1020.41 1020.27 1020.08 1019.99 1020.04 1019.79 1019.50
1018.32 1018.99 1019.30 1019.63 1019.39 1019.48 1019.58 1019.84 1019.92 1020.08 1020.75 1021.05 1021.09 1021.39 1021.05 1021.31 1021.30 1021.23 1021.05 1020.95 1020.96 1020.62 1020.42 1020.36 1020.37 1020.23 1020.08 1019.82 1019.87 1019.96 1019.99 1019.91
1018.09 1018.63 1019.12 1019.30 1019.19 1019.42 1019.82 1020.30 1020.07 1020.23 1020.50 1020.80 1020.75 1021.09 1021.02 1021.25 1021.18 1021.19 1020.86 1020.89 1020.84 1020.49 1020.35 1020.27 1020.30 1020.14 1020.01 1019.80 1019.79 1019.70 1019.65 1020.07
1017.88 1018.00 1018.47 1018.63 1019.03 1019.30 1019.77 1020.34 1020.34 1020.32 1020.41 1020.37 1020.35 1020.68 1020.93 1021.08 1021.23 1021.16 1021.06 1020.82 1020.80 1020.46 1020.43 1020.21 1020.08 1020.01 1019.74 1019.81 1019.76 1019.58 1019.48 1019.62
1017.81 1017.81 1018.13 1018.49 1018.59 1019.17 1019.44 1019.85 1020.13 1020.25 1020.31 1020.26 1020.48 1020.92 1020.94 1021.02 1021.05 1020.88 1020.87 1020.76 1020.77 1020.51 1020.36 1020.02 1019.87 1019.65 1019.66 1019.60 1019.53 1019.51 1019.42 1019.45
1017.73 1017.65 1018.17 1018.73 1019.21 1019.55 1019.29 1019.38 1019.61 1020.09 1020.18 1020.21 1020.32 1020.81 1020.97 1020.99 1020.93 1020.87 1020.79 1020.65 1020.57 1020.47 1020.29 1020.05 1019.84 1019.48 1019.35 1019.28 1019.18 1019.09 1019.00 1019.02
1018.26 1018.81 1018.85 1018.72 1019.40 1019.31 1019.45 1019.52 1019.42 1020.02 1020.21 1020.16 1020.31 1020.65 1020.96 1021.14 1021.10 1021.03 1020.86 1020.76 1020.65 1020.54 1020.37 1020.21 1019.95 1019.63 1019.35 1019.01 1018.77 1018.60 1018.50 1018.47
1018.31 1019.46 1020.15 1020.05 1019.32 1018.98 1019.40 1019.41 1019.42 1020.10 1020.03 1019.94 1020.07 1020.39 1020.86 1021.18 1021.47 1021.45 1021.21 1020.95 1020.67 1020.44 1020.20 1020.01 1019.83 1019.41 1019.38 1018.94 1018.67 1018.33 1018.20 1017.98
1017.70 1018.82 1018.70 1020.20 1020.61 1019.46 1019.23 1019.50 1019.47 1019.82 1020.19 1020.45 1020.58 1020.77 1021.01 1021.18 1021.53 1021.70 1021.36 1021.08 1020.93 1020.86 1020.60 1020.40 1020.16 1019.89 1019.63 1019.14 1018.71 1018.33 1018.11 1017.92
1018.33 1018.88 1019.10 1020.03 1020.01 1019.85 1019.33 1019.10 1019.29 1019.87 1020.30 1020.54 1020.69 1020.84 1021.00 1021.28 1021.61 1021.59 1021.41 1021.26 1021.14 1021.11 1020.93 1020.78 1020.52 1020.07 1019.61 1019.07 1018.64 1018.32 1017.88 1017.36
1018.27 1019.07 1019.58 1019.74 1019.67 1019.65 1019.67 1019.84 1020.03 1020.37 1020.61 1020.57 1020.73 1020.91 1020.90 1021.11 1021.34 1021.29 1021.14 1021.20 1021.33 1021.13 1021.03 1020.77 1020.53 1020.20 1019.71 1019.15 1018.60 1018.14 1017.70 1017.51
1019.11 1019.82 1019.97 1019.67 1019.84 1019.92 1020.24 1020.51 1020.40 1020.90 1020.80 1020.85 1020.77 1020.75 1020.66 1020.93 1021.38 1021.43 1021.30 1021.20 1021.35 1021.33 1021.21 1021.04 1020.70 1020.15 1019.88 1019.34 1018.68 1018.16 1017.80 1017.45
1019.77 1019.72 1020.00 1020.22 1020.29 1020.41 1020.46 1020.59 1020.80 1020.70 1020.83 1021.08 1021.45 1021.37 1021.19 1021.11 1021.71 1021.82 1021.69 1021.51 1021.52 1021.48 1021.38 1021.28 1020.94 1020.63 1020.64 1019.95 1018.91 1018.34 1018.00 1017.94
1020.07 1020.18 1020.45 1020.63 1020.67 1020.62 1020.66 1020.80 1021.03 1021.35 1021.48 1021.48 1021.73 1021.81 1021.63 1021.71 1021.94 1021.98 1021.83 1021.71 1021.75 1021.52 1021.30 1021.31 1021.19 1020.92 1020.75 1020.78 1020.14 1019.72 1019.55 1018.30
1020.52 1020.64 1020.73 1020.88 1020.98 1021.20 1021.61 1022.10 1022.26 1022.32 1022.27 1022.41 1022.28 1022.25 1022.20 1022.11 1022.08 1022.00 1021.83 1021.73 1021.60 1021.51 1021.32 1021.41 1021.19 1021.35 1021.00 1020.78 1020.88 1020.81 1020.46 1019.45
1020.76 1020.89 1020.82 1020.82 1021.00 1021.28 1021.73 1022.15 1022.19 1022.42 1022.74 1022.95 1023.08 1022.88 1022.61 1022.45 1022.15 1022.17 1022.11 1021.87 1021.93 1021.79 1021.61 1021.55 1021.52 1021.50 1021.53 1021.46 1021.14 1020.93 1020.81 1020.80
1020.68 1020.91 1021.13 1021.21 1021.32 1021.54 1021.87 1022.28 1022.58 1022.97 1023.12 1023.26 1023.22 1023.15 1023.03 1022.85 1022.78 1022.59 1022.43 1022.30 1022.17 1021.96 1021.67 1021.69 1021.67 1021.74 1021.70 1021.50 1021.52 1021.53 1021.08 1021.04
1021.00 1021.01 1020.98 1021.07 1021.36 1021.84 1022.24 1022.47 1022.69 1023.10 1023.27 1023.37 1023.35 1023.25 1023.24 1023.44 1023.23 1023.12 1023.11 1023.02 1022.81 1022.57 1022.32 1022.04 1021.83 1021.85 1021.71 1021.61 1021.16 1021.07 1020.93 1020.83
1021.16 1021.17 1021.54 1021.72 1021.94 1022.19 1022.49 1022.60 1022.58 1022.84 1023.01 1023.07 1023.20 1023.55 1023.55 1023.42 1023.28 1023.12 1023.06 1022.98 1022.90 1022.75 1022.49 1022.18 1021.91 1021.64 1021.37 1021.20 1020.97 1020.76 1020.62 1020.44
Wind_Speed
7 9 12 14 13 12 12 11 10 9 9 9 7 8 7 8 8 7 5 3 1 4 6 9 9 10 11 12 11 11 6 3
9 8 8 7 8 12 12 11 10 9 9 10 10 10 9 9 9 6 6 6 3 4 6 8 9 10 11 13 12 12 6 2
8 9 8 6 7 9 11 13 13 10 9 10 6 4 6 8 8 8 7 6 5 7 8 8 9 9 11 11 11 3 4 1
8 10 9 8 6 7 5 6 5 5 5 6 4 5 5 6 5 8 7 7 7 9 10 10 8 4 3 4 2 5 3 3
9 8 6 6 6 4 3 3 2 4 7 5 3 4 3 3 2 2 3 7 4 5 5 4 5 4 3 2 3 5 3 2
8 8 8 4 4 4 6 4 4 3 4 6 4 3 3 3 1 1 2 1 4 2 2 4 4 3 5 5 4 4 3 1
9 8 8 6 5 3 4 4 4 4 5 5 4 3 2 1 1 2 3 3 2 3 4 4 5 6 5 4 6 6 5 3
6 7 4 6 5 5 3 3 3 5 4 5 5 4 2 1 3 3 4 3 3 4 4 5 5 5 6 7 7 6 7 6
19 15 2 6 5 6 4 3 4 4 4 6 6 4 3 5 5 5 5 4 6 5 5 4 5 5 6 6 6 7 6 7
16 9 7 2 7 2 5 4 3 3 3 4 6 7 7 6 5 5 5 5 4 5 5 5 5 4 4 5 5 5 7 7
11 8 8 7 10 3 4 5 3 4 5 4 7 7 7 6 4 4 6 4 4 4 4 2 4 5 7 6 5 5 6 7
12 7 5 5 4 4 5 5 5 4 4 4 7 5 6 4 3 4 4 4 5 5 5 5 3 5 8 9 6 6 5 5
9 8 4 5 4 4 4 3 2 4 4 6 6 4 5 5 3 5 5 3 3 4 3 5 5 4 5 6 5 6 6 5
9 10 9 7 3 3 3 2 3 3 3 6 7 5 7 7 6 5 6 4 6 6 5 4 3 3 3 4 5 7 2 6
9 8 8 7 6 4 5 4 4 4 4 5 6 7 7 7 7 5 6 5 4 5 5 3 3 3 4 1 5 3 7 4
8 7 6 6 7 6 5 2 3 2 1 3 6 8 7 6 6 6 5 4 5 4 5 3 3 3 2 3 2 2 2 7
4 4 3 4 5 5 4 2 0 3 4 6 6 6 7 7 9 7 6 4 4 5 5 5 3 2 2 3 3 2 1 1
3 4 3 0 3 4 3 6 6 4 5 4 3 3 4 6 7 7 6 6 6 5 4 4 3 2 1 0 1 2 4 4
1 3 4 7 6 7 7 7 7 7 4 3 4 3 3 6 6 6 4 5 6 6 5 5 4 3 4 4 2 3 3 4
5 3 8 7 7 7 6 6 4 4 3 1 1 4 3 4 5 5 4 4 4 4 3 4 5 5 7 5 4 4 4 5
Wind_Direction
139 130 128 125 124 123 122 123 121 129 134 121 139 131 140 149 152 147 146 163 238 318 318 313 321 328 328 321 322 333 328 302
147 133 137 145 142 143 139 135 137 160 146 160 168 165 168 186 172 169 195 204 218 268 288 300 319 326 317 310 319 333 333 2
146 153 150 152 148 158 155 159 163 176 175 187 182 182 189 203 201 189 219 228 235 260 270 281 302 302 302 291 318 314 329 210
141 132 160 160 168 150 159 176 177 182 182 188 199 207 195 202 202 200 238 261 258 260 266 279 285 283 280 337 304 296 321 140
141 131 127 151 143 169 155 190 193 184 188 119 114 57 73 79 132 251 272 264 260 270 280 267 267 251 295 283 298 321 320 39
139 132 126 123 94 115 147 140 137 130 121 97 87 80 65 54 54 318 269 230 256 249 296 321 317 307 271 283 264 270 286 203
155 156 138 132 98 117 101 123 118 108 112 109 101 97 98 72 304 329 314 335 333 324 318 308 288 287 279 263 254 247 250 252
124 46 101 136 136 127 119 124 118 119 139 143 131 128 142 77 351 335 333 346 331 322 307 301 291 293 278 268 257 248 237 236
100 64 294 341 163 146 134 167 114 159 167 160 152 122 65 39 14 353 336 339 334 336 324 313 310 304 286 283 275 264 247 239
125 144 115 300 293 224 133 133 110 71 101 74 71 70 71 50 27 348 330 333 330 330 321 329 326 323 309 299 295 298 286 271
138 129 141 206 210 182 139 144 119 86 94 87 79 74 60 57 22 329 345 348 344 346 340 342 324 322 317 306 297 297 288 296
114 121 213 213 167 83 48 55 57 74 78 77 80 69 59 47 343 332 336 360 354 351 343 325 307 300 310 302 287 288 295 288
76 77 53 57 61 69 52 68 83 80 59 89 85 70 55 35 353 342 354 26 328 326 314 331 316 305 314 312 281 278 292 287
75 64 50 37 46 51 76 48 68 121 48 53 39 31 19 29 19 358 357 359 354 343 329 309 284 358 287 292 313 310 317 326
71 67 62 55 52 39 20 21 18 20 17 13 6 33 33 30 24 20 8 18 343 314 309 326 299 312 13 30 340 333 334 347
76 100 91 72 69 63 62 59 28 356 328 20 32 26 21 25 21 14 4 338 333 322 349 343 34 15 330 30 160 181 323 321
63 68 116 137 123 114 96 114 236 22 41 44 25 9 13 11 8 358 335 340 18 50 29 31 36 49 9 339 350 330 79 264
157 57 66 60 87 99 86 79 80 67 51 44 13 7 12 360 351 347 348 12 10 8 25 49 49 42 321 175 164 300 314 280
158 92 43 51 86 79 79 92 84 93 81 52 15 1 350 17 16 28 35 21 16 8 10 3 6 343 324 291 247 246 238 260
70 64 59 68 67 71 71 69 91 88 81 101 349 39 21 6 358 18 32 22 358 345 333 328 320 310 303 291 284 275 262 258